PAL915 RPVM-RPLL

Flight info

Callsign PAL915
Flight time 0h 52m
Altitude 34000
Route PARAO4P PARAO DCT ROX DCT LAIYA LAIYA5R
Aircraft B77W/H-SDE3FGHIM3RWXY/LB1

Departure

Time 2026-05-06 01:18
Airport Mactan Cebu International Airport (RPVM)

Arrival

Time 2026-05-06 02:10
Airport Ninoy Aquino International Airport (RPLL)
Time Latitude Longitude Altitude Speed Heading
2026-05-06 00:54 10.31451 123.97895 39 ft 0 kts 310°
2026-05-06 01:06 10.31444 123.97903 39 ft 2 kts 310°
2026-05-06 01:06 10.31435 123.97915 39 ft 2 kts 310°
2026-05-06 01:06 10.31426 123.97925 39 ft 0 kts 310°
2026-05-06 01:06 10.31419 123.97934 39 ft 2 kts 288°
2026-05-06 01:07 10.31419 123.97949 39 ft 2 kts 252°
2026-05-06 01:07 10.31424 123.97959 39 ft 0 kts 228°
2026-05-06 01:07 10.31428 123.97964 39 ft 0 kts 225°
2026-05-06 01:07 10.31428 123.97965 39 ft 0 kts 225°
2026-05-06 01:09 10.31416 123.97952 39 ft 8 kts 226°
2026-05-06 01:09 10.31360 123.97903 39 ft 12 kts 205°
2026-05-06 01:10 10.31290 123.97932 39 ft 11 kts 133°
2026-05-06 01:10 10.31232 123.97978 39 ft 9 kts 169°
2026-05-06 01:10 10.31167 123.97945 39 ft 12 kts 222°
2026-05-06 01:10 10.31100 123.97879 39 ft 16 kts 225°
2026-05-06 01:11 10.31002 123.97779 39 ft 23 kts 225°
2026-05-06 01:11 10.30877 123.97654 39 ft 25 kts 224°
2026-05-06 01:11 10.30751 123.97525 39 ft 25 kts 224°
2026-05-06 01:11 10.30628 123.97402 39 ft 24 kts 225°
2026-05-06 01:12 10.30509 123.97287 39 ft 23 kts 223°
2026-05-06 01:12 10.30396 123.97174 39 ft 22 kts 227°
2026-05-06 01:12 10.30288 123.97064 39 ft 21 kts 225°
2026-05-06 01:12 10.30184 123.96960 39 ft 20 kts 224°
2026-05-06 01:13 10.30084 123.96860 39 ft 19 kts 224°
2026-05-06 01:13 10.29987 123.96763 39 ft 18 kts 224°
2026-05-06 01:13 10.29884 123.96712 39 ft 15 kts 158°
2026-05-06 01:13 10.29811 123.96772 39 ft 6 kts 127°
2026-05-06 01:14 10.29777 123.96814 39 ft 0 kts 133°
2026-05-06 01:15 10.29754 123.96838 39 ft 7 kts 134°
2026-05-06 01:16 10.29722 123.96879 39 ft 5 kts 110°
2026-05-06 01:16 10.29729 123.96910 39 ft 3 kts 54°
2026-05-06 01:16 10.29751 123.96934 39 ft 6 kts 45°
2026-05-06 01:16 10.29848 123.97032 39 ft 42 kts 45°
2026-05-06 01:17 10.30188 123.97373 39 ft 94 kts 45°
2026-05-06 01:17 10.30771 123.97958 39 ft 138 kts 45°
2026-05-06 01:17 10.31536 123.98727 182 ft 164 kts 43°
2026-05-06 01:17 10.32370 123.99575 601 ft 175 kts 44°
2026-05-06 01:18 10.33218 124.00433 949 ft 165 kts 45°
2026-05-06 01:18 10.34034 124.01257 1081 ft 175 kts 45°
2026-05-06 01:18 10.34996 124.02234 1416 ft 209 kts 45°
2026-05-06 01:18 10.36070 124.03316 2058 ft 232 kts 45°
2026-05-06 01:19 10.37334 124.04484 2756 ft 256 kts 33°
2026-05-06 01:19 10.39009 124.05024 3876 ft 264 kts
2026-05-06 01:19 10.40801 124.04643 4963 ft 275 kts 335°
2026-05-06 01:19 10.42296 124.03442 5848 ft 282 kts 315°
2026-05-06 01:20 10.43656 124.01962 6590 ft 289 kts 316°
2026-05-06 01:20 10.45068 124.00511 7420 ft 292 kts 317°
2026-05-06 01:20 10.46525 123.99037 8211 ft 297 kts 317°
2026-05-06 01:20 10.47994 123.97568 9013 ft 300 kts 317°
2026-05-06 01:21 10.49483 123.96086 9811 ft 304 kts 317°
2026-05-06 01:21 10.51014 123.94569 10468 ft 314 kts 317°
2026-05-06 01:21 10.52668 123.92936 10532 ft 346 kts 317°
2026-05-06 01:21 10.54473 123.91154 10876 ft 370 kts 317°
2026-05-06 01:22 10.56296 123.89349 11795 ft 374 kts 317°
2026-05-06 01:22 10.58177 123.87489 12676 ft 379 kts 317°
2026-05-06 01:22 10.59924 123.85429 13491 ft 386 kts 306°
2026-05-06 01:22 10.61494 123.83221 14322 ft 391 kts 308°
2026-05-06 01:23 10.63108 123.81004 15200 ft 395 kts 307°
2026-05-06 01:23 10.64740 123.78744 16022 ft 400 kts 307°
2026-05-06 01:23 10.66382 123.76466 16860 ft 405 kts 307°
2026-05-06 01:23 10.68068 123.74127 17687 ft 410 kts 307°
2026-05-06 01:24 10.69743 123.71801 18468 ft 415 kts 307°
2026-05-06 01:24 10.71476 123.69393 19275 ft 421 kts 307°
2026-05-06 01:24 10.73204 123.66992 20032 ft 426 kts 307°
2026-05-06 01:24 10.74960 123.64552 20733 ft 431 kts 307°
2026-05-06 01:25 10.76745 123.62071 21415 ft 436 kts 307°
2026-05-06 01:25 10.78536 123.59580 22095 ft 440 kts 307°
2026-05-06 01:25 10.80350 123.57056 22728 ft 444 kts 307°
2026-05-06 01:25 10.82173 123.54520 23395 ft 447 kts 307°
2026-05-06 01:26 10.84014 123.51959 24033 ft 449 kts 307°
2026-05-06 01:26 10.85871 123.49374 24672 ft 451 kts 307°
2026-05-06 01:26 10.87712 123.46809 25230 ft 455 kts 307°
2026-05-06 01:26 10.89582 123.44207 25813 ft 456 kts 307°
2026-05-06 01:27 10.91480 123.41602 26355 ft 458 kts 309°
2026-05-06 01:27 10.93658 123.39229 26847 ft 460 kts 317°
2026-05-06 01:27 10.95996 123.36978 27334 ft 462 kts 316°
2026-05-06 01:27 10.98336 123.34714 27773 ft 465 kts 316°
2026-05-06 01:28 11.00696 123.32437 28233 ft 467 kts 316°
2026-05-06 01:28 11.03028 123.30191 28674 ft 469 kts 316°
2026-05-06 01:28 11.05413 123.27894 29034 ft 473 kts 316°
2026-05-06 01:28 11.07839 123.25558 29468 ft 475 kts 316°
2026-05-06 01:29 11.10239 123.23249 29848 ft 478 kts 316°
2026-05-06 01:29 11.12665 123.20914 30282 ft 479 kts 316°
2026-05-06 01:29 11.15062 123.18607 30780 ft 479 kts 316°
2026-05-06 01:29 11.17501 123.16258 31440 ft 474 kts 316°
2026-05-06 01:30 11.19863 123.13983 31987 ft 472 kts 316°
2026-05-06 01:30 11.22272 123.11661 32485 ft 471 kts 316°
2026-05-06 01:30 11.24630 123.09389 33035 ft 470 kts 316°
2026-05-06 01:30 11.27021 123.07085 33590 ft 468 kts 316°
2026-05-06 01:31 11.29371 123.04820 33931 ft 467 kts 316°
2026-05-06 01:31 11.31734 123.02541 33902 ft 464 kts 316°
2026-05-06 01:31 11.36431 122.98010 33916 ft 465 kts 316°
2026-05-06 01:32 11.41134 122.93471 33914 ft 467 kts 316°
2026-05-06 01:32 11.45848 122.88920 33913 ft 465 kts 316°
2026-05-06 01:33 11.50535 122.84392 33914 ft 465 kts 316°
2026-05-06 01:33 11.55233 122.79852 33912 ft 465 kts 316°
2026-05-06 01:34 11.60008 122.75425 33908 ft 466 kts 322°
2026-05-06 01:34 11.65390 122.71678 33911 ft 467 kts 325°
2026-05-06 01:35 11.70755 122.67993 33916 ft 466 kts 325°
2026-05-06 01:35 11.76160 122.64291 33914 ft 466 kts 325°
2026-05-06 01:36 11.81555 122.60599 33913 ft 466 kts 325°
2026-05-06 01:36 11.86915 122.56931 33913 ft 465 kts 325°
2026-05-06 01:37 11.92312 122.53237 33912 ft 465 kts 325°
2026-05-06 01:37 11.97705 122.49545 33913 ft 465 kts 325°
2026-05-06 01:38 12.03081 122.45861 33909 ft 466 kts 325°
2026-05-06 01:38 12.08463 122.42172 33909 ft 466 kts 325°
2026-05-06 01:39 12.13875 122.38460 33909 ft 466 kts 325°
2026-05-06 01:39 12.19255 122.34769 33911 ft 466 kts 325°
2026-05-06 01:40 12.24619 122.31087 33913 ft 466 kts 325°
2026-05-06 01:40 12.30013 122.27383 33911 ft 465 kts 325°
2026-05-06 01:41 12.35369 122.23703 33911 ft 464 kts 325°
2026-05-06 01:41 12.40718 122.20026 33911 ft 464 kts 325°
2026-05-06 01:42 12.45647 122.16636 33913 ft 464 kts 325°
2026-05-06 01:42 12.51018 122.12940 33913 ft 464 kts 325°
2026-05-06 01:43 12.56358 122.09264 33913 ft 464 kts 325°
2026-05-06 01:43 12.61707 122.05579 33910 ft 464 kts 325°
2026-05-06 01:44 12.67087 122.01872 33911 ft 464 kts 325°
2026-05-06 01:44 12.72430 121.98186 33914 ft 464 kts 325°
2026-05-06 01:45 12.77797 121.94484 33923 ft 463 kts 325°
2026-05-06 01:45 12.83133 121.90801 33929 ft 464 kts 325°
2026-05-06 01:46 12.88499 121.87096 33926 ft 463 kts 325°
2026-05-06 01:46 12.93833 121.83410 33925 ft 463 kts 325°
2026-05-06 01:47 12.99177 121.79716 33923 ft 464 kts 325°
2026-05-06 01:47 13.04519 121.76020 33932 ft 463 kts 325°
2026-05-06 01:48 13.09854 121.72328 33931 ft 463 kts 325°
2026-05-06 01:48 13.15222 121.68610 33930 ft 463 kts 325°
2026-05-06 01:49 13.20564 121.64910 33853 ft 458 kts 325°
2026-05-06 01:49 13.23175 121.63100 33448 ft 445 kts 325°
2026-05-06 01:49 13.25709 121.61343 32577 ft 440 kts 325°
2026-05-06 01:50 13.28255 121.59576 31796 ft 437 kts 325°
2026-05-06 01:50 13.30758 121.57839 31036 ft 440 kts 325°
2026-05-06 01:50 13.33322 121.56060 30264 ft 447 kts 325°
2026-05-06 01:50 13.35902 121.54269 29508 ft 454 kts 325°
2026-05-06 01:51 13.38538 121.52440 28744 ft 455 kts 325°
2026-05-06 01:51 13.41147 121.50629 27998 ft 451 kts 325°
2026-05-06 01:51 13.43723 121.48840 27255 ft 446 kts 325°
2026-05-06 01:51 13.46271 121.47069 26512 ft 441 kts 325°
2026-05-06 01:52 13.48778 121.45326 25778 ft 437 kts 326°
2026-05-06 01:52 13.51284 121.43584 25323 ft 422 kts 326°
2026-05-06 01:52 13.53642 121.41943 25302 ft 394 kts 326°
2026-05-06 01:52 13.55844 121.40411 25042 ft 376 kts 326°
2026-05-06 01:53 13.57988 121.38890 24226 ft 375 kts 324°
2026-05-06 01:53 13.60087 121.37318 23533 ft 370 kts 324°
2026-05-06 01:53 13.62154 121.35777 22805 ft 367 kts 324°
2026-05-06 01:53 13.64186 121.34264 22088 ft 363 kts 324°
2026-05-06 01:54 13.66222 121.32746 21386 ft 359 kts 324°
2026-05-06 01:54 13.68227 121.31252 20658 ft 357 kts 324°
2026-05-06 01:54 13.70221 121.29765 20004 ft 352 kts 324°
2026-05-06 01:54 13.72194 121.28294 19349 ft 349 kts 324°
2026-05-06 01:55 13.74165 121.26825 18749 ft 346 kts 324°
2026-05-06 01:55 13.76116 121.25371 18166 ft 345 kts 324°
2026-05-06 01:55 13.78031 121.23940 17588 ft 341 kts 324°
2026-05-06 01:55 13.79954 121.22505 17012 ft 339 kts 324°
2026-05-06 01:56 13.81848 121.21091 16442 ft 335 kts 324°
2026-05-06 01:56 13.83709 121.19701 15896 ft 333 kts 324°
2026-05-06 01:56 13.85587 121.18300 15332 ft 329 kts 324°
2026-05-06 01:56 13.87427 121.16925 14774 ft 327 kts 325°
2026-05-06 01:57 13.89258 121.15557 14229 ft 324 kts 325°
2026-05-06 01:57 13.91069 121.14204 13687 ft 321 kts 325°
2026-05-06 01:57 13.92875 121.12856 13125 ft 319 kts 325°
2026-05-06 01:57 13.94652 121.11529 12608 ft 317 kts 326°
2026-05-06 01:58 13.96423 121.10206 12085 ft 313 kts 325°
2026-05-06 01:58 13.98199 121.08880 11607 ft 312 kts 325°
2026-05-06 01:58 13.99948 121.07572 11114 ft 309 kts 325°
2026-05-06 01:58 14.01670 121.06284 10620 ft 306 kts 325°
2026-05-06 01:59 14.03401 121.04990 10191 ft 303 kts 325°
2026-05-06 01:59 14.05071 121.03740 9764 ft 295 kts 325°
2026-05-06 01:59 14.06719 121.02507 9439 ft 291 kts 325°
2026-05-06 01:59 14.08361 121.01278 9106 ft 290 kts 325°
2026-05-06 02:00 14.09994 121.00056 8762 ft 288 kts 325°
2026-05-06 02:00 14.11601 120.98853 8376 ft 287 kts 325°
2026-05-06 02:00 14.13223 120.97639 8012 ft 285 kts 326°
2026-05-06 02:00 14.14825 120.96439 7628 ft 283 kts 326°
2026-05-06 02:01 14.16399 120.95261 7242 ft 280 kts 325°
2026-05-06 02:01 14.18010 120.94164 6883 ft 276 kts 332°
2026-05-06 02:01 14.19677 120.93189 6492 ft 275 kts 332°
2026-05-06 02:01 14.21349 120.92200 6028 ft 276 kts 332°
2026-05-06 02:02 14.22985 120.91230 5996 ft 259 kts 332°
2026-05-06 02:02 14.24492 120.90337 5921 ft 246 kts 332°
2026-05-06 02:02 14.25984 120.89455 5830 ft 242 kts 332°
2026-05-06 02:02 14.27459 120.88584 5570 ft 242 kts 333°
2026-05-06 02:03 14.28914 120.87740 5354 ft 244 kts 333°
2026-05-06 02:03 14.30393 120.86884 4913 ft 245 kts 333°
2026-05-06 02:03 14.31879 120.86024 4556 ft 241 kts 333°
2026-05-06 02:03 14.33293 120.85202 4642 ft 222 kts 333°
2026-05-06 02:04 14.34612 120.84438 4530 ft 213 kts 333°
2026-05-06 02:04 14.35899 120.83692 4533 ft 206 kts 333°
2026-05-06 02:04 14.37136 120.82976 4539 ft 206 kts 333°
2026-05-06 02:04 14.38482 120.82485 4530 ft 203 kts
2026-05-06 02:05 14.39871 120.82769 4251 ft 210 kts 29°
2026-05-06 02:05 14.40874 120.83785 3827 ft 204 kts 63°
2026-05-06 02:05 14.41516 120.85096 3394 ft 207 kts 63°
2026-05-06 02:05 14.42209 120.86402 3036 ft 204 kts 62°
2026-05-06 02:06 14.42887 120.87654 2747 ft 198 kts 62°
2026-05-06 02:06 14.43539 120.88842 2538 ft 186 kts 62°
2026-05-06 02:06 14.44172 120.89985 2266 ft 181 kts 61°
2026-05-06 02:06 14.44792 120.91099 2017 ft 172 kts 61°
2026-05-06 02:07 14.45359 120.92114 1765 ft 158 kts 62°
2026-05-06 02:07 14.45882 120.93050 1588 ft 141 kts 62°
2026-05-06 02:07 14.46367 120.93920 1394 ft 140 kts 62°
2026-05-06 02:07 14.46866 120.94813 1218 ft 147 kts 63°
2026-05-06 02:08 14.47387 120.95746 1039 ft 150 kts 61°
2026-05-06 02:08 14.47902 120.96667 844 ft 148 kts 61°
2026-05-06 02:08 14.48406 120.97571 658 ft 145 kts 62°
2026-05-06 02:08 14.48927 120.98474 476 ft 145 kts 60°
2026-05-06 02:09 14.49436 120.99375 271 ft 148 kts 62°
2026-05-06 02:09 14.49951 121.00320 120 ft 151 kts 61°
2026-05-06 02:09 14.50462 121.01227 85 ft 134 kts 64°
2026-05-06 02:09 14.50844 121.01923 85 ft 68 kts 60°
2026-05-06 02:10 14.51002 121.02180 85 ft 12 kts 42°
2026-05-06 02:10 14.51069 121.02238 85 ft 12 kts 42°
2026-05-06 02:10 14.51116 121.02283 85 ft 5 kts 41°
2026-05-06 02:10 14.51151 121.02301 85 ft 5 kts 12°
2026-05-06 02:11 14.51181 121.02295 85 ft 3 kts 325°
2026-05-06 02:11 14.51191 121.02277 85 ft 2 kts 279°
2026-05-06 02:11 14.51183 121.02241 85 ft 8 kts 243°
2026-05-06 02:11 14.51148 121.02181 85 ft 10 kts 240°
2026-05-06 02:12 14.51113 121.02118 85 ft 9 kts 240°
2026-05-06 02:12 14.51080 121.02059 85 ft 9 kts 240°
2026-05-06 02:12 14.51049 121.02003 85 ft 8 kts 240°
2026-05-06 02:12 14.51020 121.01949 85 ft 8 kts 240°
2026-05-06 02:13 14.50992 121.01898 85 ft 8 kts 241°
2026-05-06 02:13 14.50964 121.01849 85 ft 7 kts 239°
2026-05-06 02:13 14.50938 121.01803 85 ft 7 kts 240°
2026-05-06 02:13 14.50914 121.01759 85 ft 7 kts 240°
2026-05-06 02:14 14.50889 121.01714 85 ft 7 kts 240°
2026-05-06 02:14 14.50864 121.01669 85 ft 7 kts 240°
2026-05-06 02:14 14.50838 121.01623 85 ft 8 kts 240°
2026-05-06 02:14 14.50805 121.01564 85 ft 9 kts 240°
2026-05-06 02:15 14.50773 121.01505 85 ft 9 kts 240°
2026-05-06 02:15 14.50738 121.01442 85 ft 13 kts 240°
2026-05-06 02:15 14.50671 121.01321 85 ft 23 kts 240°
2026-05-06 02:15 14.50585 121.01167 85 ft 25 kts 240°
2026-05-06 02:16 14.50499 121.01012 85 ft 24 kts 239°
2026-05-06 02:16 14.50421 121.00873 85 ft 20 kts 241°
2026-05-06 02:16 14.50375 121.00753 85 ft 16 kts 274°
2026-05-06 02:16 14.50390 121.00682 84 ft 5 kts 293°
2026-05-06 02:17 14.50413 121.00661 85 ft 0 kts 332°
2026-05-06 02:17 14.50423 121.00657 85 ft 5 kts 348°
2026-05-06 02:17 14.50460 121.00657 85 ft 2 kts
2026-05-06 02:17 14.50466 121.00657 85 ft 0 kts